Regional Weather Roundup
Issued by NWS

Home | Current Version | Previous Version | Graphics & Text | Print | Product List | Glossary On
Versions: 1 2 3 4 5 6 7 8 9 10 11 12 13 14 15 16 17 18 19 20 21 22 23 24 25 26 27 28 29 30 31 32 33 34 35 36 37 38 39 40 41 42 43 44 45 46 47 48 49 50
000
ASUS45 KBOU 010110
RWRCO

WEATHER ROUNDUP FOR COLORADO
NATIONAL WEATHER SERVICE PUEBLO CO
700 PM MDT FRI JUL 31 2015

NOTE: "FAIR" INDICATES FEW OR NO CLOUDS BELOW 12000 FEET WITH NO
SIGNIFICANT WEATHER AND/OR OBSTRUCTIONS TO VISIBILITY.

COZ001>005-013-030-031-010200-
...NORTHWEST COLORADO...

CITY           SKY/WX    TMP DP  RH WIND       PRES   REMARKS
CRAIG          SUNNY     89  25  10 W3        30.21F
HAYDEN         SUNNY     86  25  10 CALM      30.24S
MEEKER         SUNNY     88  21   8 NW6       30.23F
MOUNT WERNER   NOT AVBL
STEAMBOAT SPGS FAIR      84  29  13 W6        30.26F
WALDEN         FAIR      77  32  19 N8        30.37S
$$

COZ006>008-011-010200-
...WEST CENTRAL VALLEYS...

CITY           SKY/WX    TMP DP  RH WIND       PRES   REMARKS
GRAND JUNCTION MOSUNNY   91  24   9 S5        30.09F
MONTROSE       CLOUDY    81  46  29 MISG      30.24R
EAGLE          MOSUNNY   84  34  16 SW10G18   30.25S
RIFLE          SUNNY     92  35  13 SE10      30.13F
DELTA          NOT AVBL
NUCLA          FAIR      81  41  24 E12       30.28F
$$

COZ017>023-064>068-010200-
...SOUTHWEST COLORADO...

CITY           SKY/WX    TMP DP  RH WIND       PRES   REMARKS
DURANGO        CLOUDY    68  51  54 VRB3      30.35S
CORTEZ         LGT RAIN  65  62  90 NE6       30.28F
PAGOSA SPRINGS FAIR      66  55  69 W3        30.42F
TELLURIDE      RAIN      54  51  91 E6        30.58F
WOLF CREEK PAS NOT AVBL
$$

COZ009-010-012-014-032>034-037-058>063-010200-
...CENTRAL COLORADO...

CITY           SKY/WX    TMP DP  RH WIND       PRES   REMARKS
ASPEN          MOSUNNY   74  42  31 SE7       30.36F
BUENA VISTA    PTSUNNY   71  46  40 NE9       30.42S
COPPER MTN     PTSUNNY   59  34  38 S23       30.73S
BERTHOUD PASS  PTSUNNY   46  36  66 E18G28    30.78F
COTTONWOOD PAS PTSUNNY   66  43  42 CALM      30.58S
GUNNISON       PTSUNNY   73  45  35 SE9       30.41S
KREMMLING      MOSUNNY   82  16   8 NW9       30.32S
LEADVILLE      CLOUDY    62  41  46 SE3       30.55F
MONARCH PASS   CLOUDY    54  39  58 W7        30.84S
SALIDA         NOT AVBL
NIWOT RIDGE    NOT AVBL
SUNLIGHT       SUNNY     68  34  28 CALM      30.64F
WILKERSON PASS PTSUNNY   52  45  76 CALM      30.71F
$$

COZ069>075-010200-
...SAN LUIS VALLEY/SANGRE DE CRISTO MOUNTAINS...

CITY           SKY/WX    TMP DP  RH WIND       PRES   REMARKS
ALAMOSA        CLOUDY    61  53  75 S12       30.41S
LA VETA PASS   PTSUNNY   57  45  62 MISG      30.61S
SAGUACHE       LGT RAIN  61  55  82 CALM      30.46R
$$

COZ035-036-038>040-010200-
...NORTHERN COLORADO FRONT RANGE...

CITY           SKY/WX    TMP DP  RH WIND       PRES   REMARKS
DENVER INTL AP MOSUNNY   84  49  29 S15       30.21F
DMNS CITY PARK NOT AVBL
AURORA         MOSUNNY   80  49  33 S13       30.25S
FRONT RANGE AP PTSUNNY   84  45  24 MISG      30.24S
ERIE MUNI ARPT FAIR      85  45  24 S12       30.19S
BOULDER MUN AP FAIR      82  48  30 SE8       30.20S
CENTENNIAL     MOSUNNY   79  51  37 S10       30.26F
BROOMFIELD     MOSUNNY   82  48  30 S13       30.24F
LOVELAND       MOSUNNY   84  50  30 E8        30.16R
LONGMONT       FAIR      87  46  24 S3        30.20S
$$

COZ041-046-047-076>085-087-088-010200-
...PIKES PEAK/PALMER DIVIDE AND SOUTHERN FOOTHILLS...

CITY           SKY/WX    TMP DP  RH WIND       PRES   REMARKS
COLO. SPRINGS  PTSUNNY   72  52  49 NW7       30.31F
A. F. ACADEMY  PTSUNNY   73  48  40 S13       30.33F
ELLICOTT       PTSUNNY  N/A N/A N/A MISG      30.30R
FALCON         FAIR      73  50  44 S6        30.38S
FORT CARSON    LGT RAIN  70  56  59 W17       30.27S
LIMON          MOSUNNY   79  53  40 SE9       30.25S
MONUMENT HILL  PTSUNNY   68  52  56 SE10      30.37S
TRINIDAD       CLOUDY    81  54  39 E8        30.24S
$$

COZ042>045-048>051-090-091-010200-
...NORTHEAST COLORADO...

CITY           SKY/WX    TMP DP  RH WIND       PRES   REMARKS
GREELEY ARPT   MOSUNNY   84  50  30 E9        30.17S
AKRON          SUNNY     85  46  25 SE8       30.19S
BURLINGTON     SUNNY     83  54  36 S8        30.19R
WRAY           PTSUNNY   91  53  27 SE6       30.13S
STERLING       FAIR      88  54  31 SE6       30.12S
HOLYOKE        NOT AVBL
FORT MORGAN    FAIR      85  46  25 SE9       30.17S
$$

COZ086-089-092>099-010200-
...SOUTHEAST COLORADO...

CITY           SKY/WX    TMP DP  RH WIND       PRES   REMARKS
PUEBLO         PTSUNNY   87  51  28 SE12      30.17S
LA JUNTA       MOSUNNY   86  60  41 SE15      30.15R
LAMAR          SUNNY     85  59  41 SE12G20   30.13R
SPRINGFIELD      N/A     77  63  61 SE14      30.20R
$$




USA.gov is the U.S. government's official web portal to all federal, state and local government web resources and services.